Wind_Speed
35 35 34 34 34 33 34 34 34 35 36 37 38 38 38 38 39 38 37 37 36 36 35 35 35 34 34 34 34 33 33 32 31 31 30 29 28 27 27 27 27 29 31 32 32 33 34 35 35 34 33 33 33 33 34 33 32 29 27 26 27 28 28 28 27 26 25 24 23 22 22 21 20 20 20 18 17 16 15 15 16 18 18 19 21 22 22 23
36 36 36 36 36 35 35 36 36 36 37 38 38 39 40 40 40 40 40 39 39 38 38 37 37 37 36 36 36 35 34 33 33 32 31 30 29 29 28 28 28 29 31 32 33 34 34 36 36 36 35 35 34 34 35 35 34 31 28 27 27 27 28 28 28 27 25 24 24 23 23 22 21 21 21 20 18 17 16 16 16 16 17 19 20 22 23 24
37 38 38 38 38 37 37 37 37 38 38 38 39 40 41 41 42 42 42 42 42 41 40 40 40 39 39 38 38 37 36 35 34 33 32 31 30 30 29 29 29 29 30 32 33 35 36 36 36 36 35 35 34 34 34 35 34 33 30 29 28 28 28 28 28 27 26 25 24 24 23 23 22 22 22 22 21 20 19 19 18 18 19 20 21 23 25 26
38 38 39 40 40 39 39 39 39 39 39 39 40 41 41 42 43 43 44 44 44 44 43 43 42 42 41 41 40 39 38 37 36 35 34 32 31 31 30 30 29 30 30 32 33 35 36 37 37 37 36 35 34 33 33 34 35 34 32 31 31 30 30 29 29 28 27 26 25 24 24 24 23 23 23 24 24 23 22 22 21 21 21 22 23 25 26 28
39 39 40 40 41 41 41 41 40 40 40 41 41 41 42 43 44 44 45 46 46 46 46 45 45 44 43 43 42 41 40 39 38 37 35 34 33 32 31 30 30 30 30 31 33 34 36 38 38 38 37 36 35 34 33 33 34 34 32 32 32 33 32 32 31 30 29 28 27 26 26 25 25 25 25 25 26 26 25 25 25 25 25 26 26 27 28 29
39 40 40 41 41 41 41 42 42 41 41 42 42 42 43 44 44 45 46 47 48 48 48 48 47 46 46 45 45 43 42 41 40 39 37 35 34 33 32 31 30 30 30 31 32 34 35 37 39 39 39 37 36 35 33 33 33 33 32 31 32 33 33 33 32 31 30 29 29 28 28 28 28 28 28 28 29 29 29 29 29 29 29 29 29 30 30 31
39 40 40 41 41 42 42 42 42 42 42 42 43 43 44 44 45 45 47 48 49 50 50 50 49 49 48 48 47 46 44 43 42 41 39 37 36 34 33 32 31 30 31 31 32 33 35 36 38 40 40 39 38 36 34 33 33 32 31 31 31 32 32 33 33 32 31 31 31 30 30 30 30 31 31 31 32 32 32 32 32 32 32 32 32 32 32 32
39 40 40 41 41 42 42 42 42 42 43 43 43 44 44 45 45 45 47 48 49 50 51 52 51 51 51 50 49 48 47 45 44 43 41 40 37 36 35 33 32 31 31 31 32 33 34 35 37 39 40 40 39 38 36 35 34 33 32 31 31 31 32 33 33 33 32 32 32 32 32 31 32 33 32 33 34 34 33 33 33 33 33 32 32 32 32 32
38 39 40 41 42 42 42 42 42 42 43 43 43 43 44 45 46 45 46 47 49 50 51 52 53 53 53 52 51 50 49 47 46 45 43 42 40 37 36 35 33 32 32 32 32 33 34 35 36 38 40 41 41 40 39 37 35 34 33 33 32 31 32 33 34 33 32 32 32 33 32 32 32 33 33 33 33 33 33 33 32 32 32 32 32 31 31 31
36 38 39 40 41 42 43 42 42 43 43 43 43 43 43 44 45 45 45 46 47 49 50 51 52 53 54 54 53 52 51 49 48 46 45 44 42 39 38 36 35 33 33 32 32 33 34 35 36 37 39 41 42 42 42 40 38 35 34 34 33 32 32 32 33 33 32 32 32 33 33 32 32 32 32 32 32 32 32 32 32 32 31 31 31 31 31 31
34 36 38 40 41 42 43 43 43 43 43 43 43 44 44 44 44 44 44 45 45 46 48 50 51 53 54 54 55 54 53 51 50 48 47 46 44 42 39 38 37 35 34 33 33 34 35 35 36 37 39 41 42 43 43 42 41 38 36 35 35 33 33 33 33 32 32 32 32 34 33 31 31 32 32 32 32 32 32 32 31 31 31 31 31 31 31 31
33 35 36 38 39 41 42 43 44 44 44 44 44 45 45 45 45 45 44 44 44 45 46 47 49 51 53 54 55 55 54 53 52 51 49 47 46 44 42 40 39 37 36 35 35 34 35 36 36 37 39 40 42 43 44 44 43 41 38 36 35 34 33 33 33 32 32 32 32 34 36 33 31 33 33 32 33 33 33 32 31 30 30 30 31 31 31 31
33 34 35 36 37 39 40 42 43 44 44 45 45 46 46 46 46 46 45 45 44 44 44 45 47 49 51 53 54 55 55 55 54 53 51 49 48 47 44 42 41 39 38 37 36 35 35 36 37 38 39 40 41 43 44 44 44 42 41 39 37 36 34 33 33 33 32 32 32 33 36 36 32 33 35 34 34 33 33 32 31 31 31 31 31 30 31 32
33 33 34 35 36 37 38 39 40 41 42 43 44 45 46 46 46 46 46 46 45 44 44 44 45 46 49 52 53 54 55 55 56 55 54 52 51 49 47 44 43 42 40 39 39 38 36 37 38 39 40 41 42 43 44 44 44 43 42 40 39 38 36 34 32 33 33 34 34 33 35 39 35 33 34 34 33 33 32 31 31 32 33 33 33 33 34 35
33 33 34 35 35 36 37 37 38 39 40 41 42 43 45 46 46 47 46 46 46 46 45 44 44 44 46 49 51 52 54 55 56 56 55 54 53 52 49 46 45 43 42 42 41 40 38 38 39 40 41 42 42 43 44 44 44 43 42 42 40 39 38 36 33 33 34 34 35 34 34 38 38 35 34 33 33 33 33 32 34 36 37 38 38 39 40 40
34 34 34 34 35 35 35 36 37 38 38 39 39 40 42 44 45 46 46 46 46 46 46 45 44 44 45 47 49 50 52 53 55 56 56 56 55 54 51 49 47 46 45 44 43 42 41 40 40 41 41 43 43 43 43 44 44 43 42 42 42 41 39 38 35 33 34 34 34 34 34 37 39 36 35 34 34 36 37 37 39 41 42 42 43 43 43 44
37 36 36 36 36 36 35 36 36 37 37 37 37 38 39 41 43 44 45 46 46 47 46 46 45 44 45 47 48 49 49 51 53 55 56 57 56 55 54 51 50 48 47 46 45 44 43 42 41 41 42 43 44 43 43 44 45 43 42 42 43 42 40 39 37 35 35 34 34 34 32 35 40 39 36 35 36 40 42 42 44 44 44 45 45 46 46 47
40 39 38 38 38 38 37 37 38 38 38 37 36 36 37 38 40 41 42 44 46 46 46 47 46 45 47 47 47 48 48 49 52 54 56 56 56 56 55 53 52 50 49 49 48 46 45 44 43 43 43 44 44 44 43 43 44 44 43 43 43 43 43 41 38 36 35 34 35 34 31 33 40 43 40 38 39 44 46 46 47 47 46 46 47 48 49 49
44 42 42 41 40 40 40 40 40 40 40 39 38 37 37 37 38 38 39 41 43 45 45 46 46 46 48 48 48 48 48 48 50 52 54 55 55 56 55 54 53 52 52 51 50 48 47 46 45 45 44 45 45 44 43 43 43 44 44 44 44 44 44 43 41 38 36 35 37 36 32 32 39 44 44 42 42 46 49 49 49 48 47 48 49 50 51 51
47 47 46 45 44 43 43 43 43 42 42 42 40 40 39 38 38 37 37 38 40 42 44 44 45 47 48 48 48 48 48 49 50 52 53 53 54 55 55 54 53 52 52 52 51 50 48 48 48 47 46 47 45 45 45 44 44 44 44 45 45 45 45 45 43 41 38 35 37 39 33 33 39 44 47 46 46 49 51 51 51 50 50 51 52 53 54 54
50 49 49 49 48 47 47 46 46 45 44 44 43 42 41 40 39 38 37 38 39 39 41 42 43 45 47 47 48 48 49 50 51 52 52 52 53 53 54 53 53 53 53 52 52 51 49 49 51 49 48 48 46 46 46 45 45 45 45 46 47 47 45 46 46 44 41 36 37 40 35 35 40 44 49 50 50 54 54 54 54 53 54 55 56 57 56 56
52 51 51 51 51 50 50 50 49 48 47 47 46 45 44 43 42 40 38 38 39 39 39 40 41 42 44 46 47 48 49 51 52 53 52 52 52 52 52 53 53 53 53 53 52 51 50 52 53 52 50 49 48 48 48 47 47 47 47 47 48 48 46 46 48 46 45 40 38 40 37 36 41 46 52 52 52 58 58 56 56 56 57 59 60 61 60 59
55 54 53 52 52 52 52 52 51 51 50 49 49 48 47 46 45 43 41 38 39 40 40 39 39 40 42 45 47 48 50 52 53 53 52 52 52 51 51 52 52 53 54 54 52 51 52 54 55 54 52 50 50 51 51 50 49 48 49 49 49 49 48 47 49 48 47 45 42 42 37 35 41 47 54 55 52 59 63 59 59 60 62 63 63 64 63 61
57 56 55 54 54 54 53 53 53 53 53 52 51 51 50 49 47 46 44 40 37 41 42 40 39 40 42 44 46 49 51 52 53 54 53 52 52 51 50 51 51 53 55 54 52 52 54 56 55 55 54 53 53 54 54 52 50 50 51 52 50 50 50 49 49 48 48 48 47 47 41 34 38 45 52 56 53 58 64 62 63 66 65 66 65 65 64 63
60 59 57 57 57 57 56 55 55 55 55 54 54 54 52 50 49 47 46 42 37 40 43 41 41 42 43 44 46 49 50 51 53 53 53 52 52 50 50 51 51 54 56 54 53 52 56 59 56 56 56 56 56 56 57 55 52 52 53 54 52 50 52 50 50 49 48 49 49 52 51 36 33 41 48 54 56 60 64 62 65 70 69 68 67 65 64 64
62 61 60 59 60 60 58 57 58 57 56 56 56 55 54 52 51 49 47 42 36 39 42 41 42 43 45 47 48 49 49 50 52 52 52 52 51 50 50 52 53 55 56 55 53 53 58 60 58 57 57 57 59 59 60 58 54 54 55 56 54 52 53 51 52 50 48 50 48 54 60 42 29 38 47 52 58 64 65 63 67 71 70 70 69 66 65 64
63 62 61 61 61 62 60 59 59 58 58 58 57 57 56 54 53 51 49 43 35 37 42 43 43 42 45 48 49 51 51 51 52 51 52 51 50 50 50 52 54 54 55 55 54 55 59 60 60 60 59 59 61 61 61 60 58 56 56 57 56 55 55 53 53 53 51 51 49 55 64 50 33 38 48 53 61 66 66 66 69 71 71 70 69 67 65 64
62 63 62 63 63 63 62 61 60 60 59 59 58 58 56 55 54 53 51 44 36 36 41 44 45 44 46 49 50 51 52 52 53 52 52 52 50 51 51 53 55 54 56 56 54 57 60 60 61 61 61 61 63 62 62 63 61 59 58 58 58 58 57 55 55 55 55 52 50 56 65 56 42 42 49 55 61 65 64 65 68 69 69 69 68 66 64 63
61 62 63 64 64 64 64 63 62 62 62 61 61 60 58 57 55 53 51 43 38 40 43 45 48 49 49 50 51 52 53 53 54 53 53 53 52 52 53 55 56 56 58 57 57 60 62 62 63 62 63 63 64 64 65 65 64 62 61 60 61 61 59 58 57 58 59 55 54 59 63 59 49 45 50 56 59 61 60 62 66 66 68 69 66 64 64 64
61 62 63 64 64 65 65 65 64 65 64 63 62 61 59 57 54 52 47 41 42 47 47 47 50 52 52 53 53 53 53 53 54 54 54 55 54 54 55 57 59 59 60 60 60 63 64 63 63 63 64 65 65 67 67 67 66 65 64 63 64 63 61 62 61 63 64 59 58 61 62 61 53 48 52 56 56 56 57 61 64 65 68 67 64 64 65 64
62 62 63 64 65 66 66 66 66 66 65 64 64 61 59 56 52 47 40 39 46 49 48 50 52 54 54 55 55 55 55 54 55 55 55 55 55 55 57 59 61 62 62 61 62 64 64 64 64 65 66 67 68 69 69 69 69 67 67 66 66 66 65 65 65 67 67 61 61 62 61 60 55 51 53 52 51 53 56 61 63 65 67 66 64 65 64 64
65 64 64 65 66 66 67 67 68 68 67 66 65 62 59 55 48 41 38 42 48 48 50 55 56 56 57 56 56 56 56 56 56 57 56 56 55 55 58 60 62 64 63 63 65 66 65 65 67 69 69 70 70 70 70 70 70 69 68 69 69 70 71 69 67 68 67 64 63 63 61 58 53 49 49 49 50 54 59 64 64 67 68 66 65 65 65 66
69 67 66 67 67 67 68 69 70 70 69 69 67 63 61 54 43 39 42 47 50 50 53 56 56 58 59 57 57 58 59 59 59 60 59 58 57 57 59 61 63 66 66 66 68 68 67 65 67 70 70 69 70 71 72 71 70 69 69 71 72 73 76 72 68 68 67 65 64 64 61 56 49 45 46 49 53 58 64 67 68 70 69 67 67 67 68 69
72 70 69 69 68 69 70 71 72 72 72 72 69 66 62 52 42 43 48 51 54 55 55 56 57 59 59 59 59 60 62 62 62 62 62 60 59 58 59 62 65 68 69 70 69 70 69 64 64 70 71 70 71 73 73 73 72 70 70 72 73 75 79 75 71 71 71 67 64 64 61 54 49 48 48 51 56 63 69 70 72 72 70 70 70 71 71 71
76 74 73 71 71 72 73 74 74 74 75 73 72 69 60 51 48 50 52 54 58 58 58 59 60 59 59 59 60 62 65 65 64 64 64 62 61 60 61 64 67 70 72 73 73 73 71 65 64 69 71 71 73 73 73 74 73 71 72 74 75 77 79 78 76 76 76 71 63 60 59 52 50 49 49 54 60 67 72 72 73 74 72 73 73 72 72 73
81 79 77 74 74 75 76 77 76 77 77 76 75 69 57 53 55 55 55 58 61 62 63 64 63 61 60 58 60 63 66 67 66 67 67 65 65 63 63 66 69 72 73 76 78 78 75 69 67 70 72 73 74 74 75 75 74 74 74 76 78 78 79 81 82 79 79 75 62 58 58 51 46 47 48 55 63 69 72 73 74 75 74 74 73 72 74 75
84 83 81 79 79 81 81 80 80 80 80 80 77 67 58 58 59 58 59 61 64 66 69 68 65 64 63 61 61 63 67 68 66 67 68 68 66 63 64 68 70 73 75 78 81 82 80 75 71 72 74 75 76 76 76 75 76 77 77 77 78 78 79 82 84 81 78 76 65 58 58 50 45 46 48 54 64 69 71 73 74 75 75 74 74 75 76 78
87 86 83 82 85 87 87 86 85 84 85 84 77 67 63 63 62 62 64 65 66 69 70 69 68 68 67 65 63 65 68 69 67 68 69 68 65 61 63 68 69 72 76 81 84 84 84 82 76 74 76 78 78 77 77 77 79 79 77 76 76 77 80 82 84 81 77 79 72 61 57 50 45 47 50 57 66 68 69 73 75 76 76 75 76 77 79 82
90 89 85 85 89 91 92 93 92 92 91 86 78 71 69 68 66 67 68 69 71 72 71 70 70 71 70 68 68 69 71 70 70 71 71 69 65 60 62 66 69 71 76 82 85 85 87 88 82 77 78 80 77 76 77 78 78 77 75 74 74 78 82 83 83 81 79 83 79 69 60 49 44 51 57 63 68 67 69 75 78 78 77 76 78 80 83 85
93 92 87 86 91 93 94 97 98 98 96 90 84 79 75 73 72 71 72 73 74 74 73 72 73 74 72 72 73 74 74 74 74 74 74 70 67 64 64 68 72 75 78 82 85 86 89 91 88 82 79 77 74 74 76 75 76 76 75 75 76 80 84 83 81 81 82 85 83 78 68 50 44 55 62 66 68 67 72 79 80 79 77 77 80 82 85 87
97 94 89 88 93 95 97 101 101 100 98 92 88 84 82 81 80 78 77 79 79 78 78 77 76 76 75 76 77 77 79 80 78 79 77 73 71 69 68 71 76 78 81 84 86 88 91 94 93 87 79 75 74 73 74 73 75 77 77 78 80 82 84 85 83 81 83 85 84 85 80 57 48 59 66 68 69 67 75 82 81 80 79 80 83 85 86 87
101 97 92 93 97 98 100 103 102 101 98 92 89 89 89 88 85 83 83 84 84 84 84 83 81 80 80 79 80 81 83 83 82 82 80 77 75 74 73 77 80 81 83 86 87 90 94 98 97 90 83 78 75 73 73 74 76 78 80 81 81 83 83 86 87 84 84 86 84 90 90 64 50 62 69 69 70 71 79 86 84 82 82 83 85 85 86 89
101 99 98 99 101 102 103 103 102 101 98 95 94 94 94 92 89 86 86 86 87 88 88 87 86 86 85 84 84 84 85 86 84 82 81 80 77 77 79 81 83 84 86 87 89 92 97 99 98 94 88 81 76 74 74 75 78 81 82 81 81 83 85 87 88 87 88 87 84 93 94 66 52 64 70 70 75 77 83 87 85 83 83 83 85 86 89 92
103 102 102 102 103 106 105 102 101 103 102 99 96 92 91 93 92 89 88 89 90 89 88 88 88 90 89 89 89 88 87 87 84 81 83 82 79 79 82 84 86 88 89 90 92 95 99 100 99 96 90 83 78 75 75 77 82 84 83 82 83 85 87 87 87 89 91 87 86 96 93 71 63 70 73 77 83 82 85 89 86 83 84 85 87 90 93 96
109 108 106 104 106 107 105 103 103 105 103 101 98 94 92 92 92 92 93 93 92 91 90 90 92 92 92 93 93 92 91 90 89 87 87 85 82 83 84 87 90 91 92 93 95 98 100 100 99 95 90 85 79 77 78 81 85 86 84 83 85 85 87 86 85 88 89 86 89 95 91 81 76 74 76 84 88 87 89 91 87 86 88 89 92 95 97 100
115 114 111 110 109 109 106 104 105 105 103 103 103 101 98 95 93 93 96 96 95 94 95 95 95 96 96 96 95 94 94 95 96 95 90 85 85 85 86 90 93 95 95 96 97 100 101 100 96 92 90 87 83 80 81 84 85 85 83 83 84 84 87 88 86 85 86 90 96 93 89 90 85 77 79 87 90 91 93 93 91 92 94 96 98 100 102 105
118 117 116 115 116 116 112 109 107 106 105 106 107 105 103 101 98 97 97 98 98 100 101 100 99 99 99 99 99 99 99 100 103 99 89 84 84 85 88 92 94 97 98 100 101 101 101 98 92 89 91 90 87 84 85 86 85 83 82 82 83 84 88 88 85 83 87 96 99 90 89 96 92 82 83 89 93 96 96 96 98 99 101 103 104 104 106 108
121 120 119 120 123 122 117 111 109 109 110 111 111 110 108 106 104 101 100 101 103 106 108 106 104 104 103 104 105 105 105 106 106 101 92 88 89 90 92 94 96 99 101 103 105 104 104 99 92 91 94 93 89 87 88 90 89 86 84 83 83 85 87 87 86 87 91 97 98 92 93 99 93 85 88 94 98 101 101 102 105 106 107 108 107 107 109 109
123 123 122 123 124 123 120 116 115 116 117 117 117 116 114 110 107 105 105 106 108 109 111 110 110 109 110 112 114 114 111 109 107 104 101 100 99 99 100 100 99 100 102 103 103 104 105 102 97 96 97 94 90 89 92 96 95 91 88 84 82 85 88 90 92 93 94 96 97 96 98 96 88 87 94 98 101 106 108 109 110 110 111 110 109 110 110 110
125 125 124 125 125 123 122 121 121 122 123 124 125 123 119 116 113 111 112 114 114 115 116 117 116 117 117 119 120 119 114 109 107 106 107 109 110 109 108 105 103 104 105 104 103 103 106 104 100 99 100 96 92 93 98 101 99 97 93 84 82 88 93 95 95 92 93 96 97 98 99 92 86 90 99 103 106 111 113 113 113 113 112 111 112 112 111 111
127 127 128 129 129 128 125 124 125 127 129 130 129 126 124 123 121 121 122 123 123 122 123 123 123 123 123 124 124 120 114 110 110 111 113 116 118 116 113 110 108 108 108 107 106 106 108 106 103 105 107 103 97 99 103 103 103 105 95 83 85 95 99 97 95 94 96 99 100 99 97 91 90 96 103 108 112 114 114 114 114 113 113 114 114 113 113 112
131 132 133 135 136 135 133 131 132 133 134 133 132 130 130 129 127 129 130 130 128 127 128 129 129 129 129 128 125 119 115 116 117 116 118 120 121 120 118 116 114 112 111 110 109 109 110 109 108 111 113 109 104 104 105 108 111 105 91 84 92 100 101 99 99 100 101 102 103 101 98 96 99 104 108 112 112 113 113 114 112 112 114 115 115 114 114 113
Wind_Direction
267 268 268 268 268 267 266 265 264 262 262 263 263 264 264 263 261 260 260 260 260 261 263 265 267 269 271 273 275 277 278 280 283 285 289 293 296 300 303 306 308 311 313 316 319 321 323 325 328 332 334 336 338 341 344 344 343 340 337 335 333 331 329 327 327 329 331 331 331 333 337 339 339 338 339 339 336 332 325 319 312 312 315 313 312 313 313 314
267 267 267 268 267 267 266 265 264 263 262 262 263 263 264 264 263 262 262 262 261 261 262 264 266 267 269 271 272 274 277 279 281 283 286 290 293 296 300 303 306 308 311 313 316 319 321 323 326 329 331 333 336 338 341 342 341 340 338 335 332 330 327 324 323 323 326 326 326 328 332 335 336 337 337 335 333 331 326 322 319 317 315 312 311 312 312 312
266 267 268 268 267 267 266 266 265 264 263 263 263 264 264 265 264 264 263 263 263 263 263 264 265 266 268 269 270 272 274 276 279 281 284 287 290 293 297 300 303 306 309 311 314 316 318 320 323 325 327 330 333 335 338 340 339 338 337 334 332 330 327 324 321 319 319 320 320 321 324 327 330 331 331 329 327 326 325 324 323 320 315 314 313 313 313 313
265 266 267 268 268 268 267 266 266 266 265 265 265 265 265 266 266 265 264 264 264 264 264 264 265 266 267 268 269 270 272 275 277 279 281 284 286 290 293 296 299 303 306 309 312 314 315 317 320 322 323 326 329 332 335 337 337 336 335 333 332 330 328 325 321 318 316 314 314 314 316 319 321 323 323 322 321 321 322 322 320 317 315 314 314 314 314 314
265 266 267 267 268 269 269 268 267 267 267 268 268 268 268 268 268 268 267 265 265 265 265 265 265 266 267 268 269 269 271 273 275 277 279 281 283 286 289 292 296 300 303 306 309 311 313 315 317 319 321 324 327 329 331 334 335 335 333 331 330 329 328 325 322 319 315 312 311 311 312 313 315 315 314 315 315 315 317 316 315 314 313 312 311 312 313 313
265 266 267 268 268 269 270 270 269 270 270 270 271 271 271 271 271 270 270 269 267 266 266 265 266 266 267 268 269 270 270 272 273 275 277 279 281 283 286 289 292 296 299 303 306 309 310 313 315 317 319 321 324 326 327 330 332 333 331 329 327 327 326 325 323 320 316 312 310 309 309 310 311 310 310 311 311 312 312 312 312 312 311 310 310 310 310 311
266 267 267 268 268 268 269 270 271 271 271 272 272 273 273 274 273 273 272 272 270 269 268 267 267 267 267 268 269 270 270 271 272 274 275 277 278 280 283 286 288 292 295 299 302 305 308 311 313 315 316 318 321 323 323 324 327 330 329 326 324 324 324 324 323 321 319 315 311 309 308 308 306 306 307 309 309 309 309 309 310 309 309 309 309 309 309 310
266 267 267 268 268 268 268 269 269 270 271 272 273 274 275 275 275 275 274 273 273 271 270 269 269 268 268 269 270 270 270 271 272 273 274 275 276 278 281 283 285 288 292 295 299 302 305 308 311 312 313 315 316 319 320 320 322 326 327 325 322 321 322 322 322 321 320 317 314 311 309 308 305 305 306 306 307 307 307 307 307 307 307 307 308 308 308 309
266 266 267 268 268 269 269 269 270 270 271 272 272 273 274 275 276 277 276 275 274 273 272 271 270 270 270 270 271 271 271 271 272 272 273 274 275 276 279 281 283 285 288 292 295 299 302 305 308 310 310 311 313 315 317 318 318 322 324 324 321 319 319 319 319 319 319 317 315 312 311 310 307 306 307 306 305 305 306 306 306 306 306 306 307 307 308 310
266 267 267 268 268 269 270 270 271 271 271 272 273 274 274 275 276 278 278 278 276 275 273 272 271 271 271 271 271 271 272 272 272 272 272 273 274 275 277 279 280 282 285 288 292 295 299 302 305 307 308 309 310 312 314 315 315 317 320 322 319 317 315 315 316 317 316 316 314 311 311 310 308 306 306 305 304 304 305 306 306 306 306 306 307 308 309 310
267 267 267 268 268 269 270 270 271 271 272 272 273 274 275 276 276 278 279 279 279 278 276 274 273 272 272 272 272 272 273 273 273 273 272 273 273 274 275 277 279 279 282 285 288 292 295 298 301 304 306 307 308 309 310 312 312 313 316 318 316 314 312 312 313 313 314 313 312 311 309 309 306 304 304 304 303 303 303 304 304 305 305 305 306 308 309 310
269 269 268 268 269 269 270 270 271 271 271 272 272 273 274 275 276 277 278 279 280 280 279 277 275 274 273 273 272 272 273 273 273 273 273 273 272 273 274 276 277 278 279 282 285 288 291 295 298 301 303 304 306 307 307 308 310 310 311 314 314 311 310 309 309 310 310 310 310 310 308 307 306 303 303 303 303 303 303 302 303 303 303 304 306 308 310 311
270 271 271 271 271 271 272 272 272 272 272 272 272 272 273 273 274 275 277 278 279 280 280 280 278 277 275 274 273 273 273 273 273 273 273 273 272 272 272 274 276 277 278 279 282 285 288 292 295 298 300 302 303 304 305 305 306 307 307 310 312 311 308 307 306 306 306 306 306 307 306 305 304 301 300 301 301 301 301 302 303 303 304 306 307 310 313 315
273 273 274 274 274 275 275 276 276 276 275 274 273 273 273 273 273 274 275 276 277 278 279 279 279 278 277 276 275 274 273 272 272 272 273 273 272 271 271 272 275 276 277 278 280 283 286 289 292 296 298 300 301 302 302 302 303 305 304 305 310 311 308 305 304 302 302 303 303 304 303 302 301 298 297 298 299 300 301 302 304 305 308 310 311 313 316 317
274 275 276 277 277 278 279 279 280 280 279 279 278 276 275 275 274 274 274 275 275 276 277 277 278 278 278 277 276 275 274 273 272 271 271 271 271 271 271 271 272 274 276 277 279 281 283 286 289 293 297 298 300 300 300 300 301 302 302 302 305 308 307 305 303 299 299 300 300 302 302 300 299 297 296 297 299 300 301 302 305 308 312 314 315 316 317 318
272 274 276 277 278 279 281 282 282 282 283 282 282 281 280 279 277 276 276 276 276 276 276 276 277 277 277 277 276 276 275 274 272 271 270 270 270 271 271 270 270 272 274 276 279 281 282 284 288 291 295 297 297 298 298 298 299 300 300 299 301 305 305 304 304 299 297 298 298 300 301 298 296 296 296 297 299 300 301 303 306 310 313 315 316 317 318 319
270 272 273 275 277 278 280 281 282 282 283 284 284 284 284 283 282 280 279 278 277 277 276 276 277 277 276 276 276 276 276 274 273 271 270 269 269 269 270 269 269 271 273 276 278 280 282 284 286 290 294 295 296 296 295 295 296 297 297 297 298 302 303 303 304 300 297 297 296 297 300 297 293 293 294 297 300 301 303 305 307 310 312 313 314 315 316 317
270 271 271 273 274 276 277 278 279 281 282 283 284 285 285 286 286 285 283 281 279 278 278 278 278 277 276 276 276 276 276 275 274 272 271 269 268 268 268 268 269 270 272 274 277 280 282 284 286 289 292 294 295 294 294 293 294 295 295 294 295 299 300 302 303 301 298 297 295 296 298 294 290 290 292 295 298 299 301 303 304 306 308 309 310 311 312 314
271 271 271 272 273 274 275 276 277 279 281 282 284 285 285 286 287 287 286 284 282 280 279 279 279 277 276 277 277 277 277 276 275 273 272 270 268 268 267 267 268 269 270 273 276 279 281 284 286 288 291 293 293 293 292 292 292 293 292 292 292 294 298 300 302 302 300 298 296 296 299 294 288 288 291 293 294 294 295 298 299 302 305 306 307 308 309 311
271 272 272 273 273 273 274 276 277 278 280 281 283 284 285 286 287 287 287 287 284 282 281 280 280 278 277 278 278 278 278 277 275 274 273 271 270 268 267 267 267 268 269 271 274 277 280 283 285 287 290 291 292 291 290 291 291 291 290 290 289 291 295 298 300 301 302 300 297 297 302 297 290 290 290 291 292 292 294 296 298 302 305 305 305 306 307 309
270 271 272 273 273 274 275 276 277 277 279 280 281 282 283 285 286 287 287 287 286 285 283 282 280 279 279 278 279 278 278 277 276 274 273 272 271 269 268 267 267 268 268 270 273 275 279 282 284 286 288 289 290 289 288 289 290 290 289 288 287 289 293 296 298 300 302 302 298 298 302 299 294 293 293 293 293 294 295 297 299 303 304 303 303 304 305 307
270 271 271 272 273 274 275 275 276 277 278 279 280 281 282 283 284 285 286 288 288 286 284 283 282 281 280 279 278 278 277 277 276 275 274 273 271 270 269 268 268 268 269 270 272 275 278 281 283 286 287 288 289 287 287 287 289 289 288 287 286 287 291 294 296 299 301 302 300 298 301 300 297 297 295 295 297 297 297 298 301 303 302 302 302 303 305 306
269 270 270 271 272 272 273 274 275 276 277 278 279 280 281 281 282 283 284 286 289 289 286 284 283 282 280 278 278 277 276 276 276 276 275 274 273 271 270 269 268 269 270 271 273 275 278 280 282 285 286 288 288 286 285 285 288 288 286 286 286 287 290 292 295 298 300 301 301 298 299 301 300 300 297 297 299 298 297 299 302 302 302 303 303 304 305 307
269 269 269 270 270 271 271 272 274 275 276 276 278 278 279 281 281 282 282 283 288 290 288 286 284 281 279 278 277 277 275 275 276 276 276 276 275 274 272 271 270 270 271 272 274 276 278 279 281 284 286 286 287 286 283 284 288 287 285 285 287 288 290 291 294 296 298 299 300 299 298 299 302 302 299 299 300 297 297 302 304 302 303 303 304 304 306 308
269 269 269 270 270 270 270 272 273 273 274 275 276 277 279 280 280 281 281 282 285 288 290 290 286 281 279 278 276 275 275 275 276 276 277 277 277 276 275 273 272 271 272 273 274 277 279 279 281 283 284 285 286 284 282 285 287 286 285 284 287 289 290 292 294 295 296 297 299 300 297 298 306 303 298 298 299 295 297 303 303 301 302 302 302 303 306 308
269 269 270 270 270 270 271 271 272 272 273 274 275 276 277 278 279 280 280 281 283 286 289 291 287 282 280 278 274 273 273 274 275 276 278 278 278 278 277 276 274 273 274 274 275 277 278 279 281 281 282 284 284 282 282 285 286 286 284 284 287 289 290 292 293 294 295 295 300 299 294 299 310 303 298 298 297 295 299 303 301 299 300 299 300 303 305 307
269 269 270 270 270 270 271 271 272 272 273 273 273 274 275 276 277 278 279 280 282 286 288 287 284 281 279 277 275 274 273 273 274 276 278 278 278 278 278 277 276 275 275 275 276 277 277 278 280 281 282 283 282 282 283 285 286 286 284 283 286 288 290 292 292 293 293 297 302 296 293 302 309 302 300 298 296 297 301 303 299 297 298 297 299 302 305 306
269 270 270 270 270 270 271 271 271 271 271 271 272 272 273 275 275 276 277 278 281 284 283 282 281 279 277 276 275 275 274 274 274 276 277 278 278 278 277 277 276 276 276 276 277 277 277 278 279 281 283 282 282 283 284 285 286 286 284 284 285 287 290 291 291 292 293 300 302 293 295 305 312 308 301 296 296 298 301 299 296 296 296 296 299 303 304 305
269 270 270 270 270 271 271 271 271 271 270 270 271 271 272 273 274 275 276 279 281 280 276 277 279 278 276 275 276 276 276 276 276 276 277 277 277 276 277 277 277 277 276 277 278 277 277 278 280 282 282 282 283 283 284 285 287 286 285 285 286 288 290 290 291 291 294 302 300 293 297 305 313 313 301 296 298 298 298 296 293 293 294 296 301 304 304 304
268 269 270 270 270 271 272 272 272 271 272 271 271 271 272 273 274 276 279 283 280 275 274 275 276 275 274 275 276 277 278 278 278 277 276 277 277 276 277 277 277 277 277 278 278 278 278 279 280 281 282 282 283 284 285 286 286 287 287 287 287 289 290 290 291 292 296 301 297 295 299 305 312 311 299 298 300 298 296 293 291 293 293 297 302 304 304 304
268 267 268 269 270 270 271 271 272 271 272 272 272 272 273 273 275 280 286 284 276 274 275 274 271 272 274 276 277 278 278 278 278 277 277 277 277 278 278 278 278 278 278 279 279 279 279 281 281 282 282 283 284 285 285 285 287 288 288 288 289 289 289 290 292 294 297 299 295 295 300 305 311 307 300 301 301 298 295 290 290 292 293 298 302 303 303 303
269 268 268 268 268 269 269 270 270 270 271 271 271 272 273 274 279 288 289 281 275 275 274 272 271 273 274 276 277 277 277 277 277 278 278 278 279 280 280 281 281 280 280 279 279 279 280 281 282 283 284 284 285 285 284 285 287 288 289 290 290 290 289 290 293 295 296 296 295 297 301 306 309 304 302 304 303 299 294 290 291 292 294 299 302 301 302 302
271 270 269 268 268 267 267 268 268 269 269 269 269 270 271 275 283 290 285 279 277 274 271 271 273 273 274 275 276 277 277 277 277 278 279 279 280 281 282 283 283 283 282 281 280 281 281 282 284 285 284 285 284 284 284 286 287 288 290 290 290 291 290 292 295 295 294 293 295 299 302 305 306 303 303 305 303 298 293 292 293 292 295 299 299 300 301 302
272 271 271 270 269 268 267 267 266 266 266 267 268 267 269 277 285 282 279 278 277 276 275 274 273 273 273 274 275 276 277 277 277 278 278 279 281 282 283 284 284 284 283 282 282 282 281 283 285 284 284 285 284 284 286 287 288 290 290 290 291 291 292 296 297 294 292 292 296 300 302 304 302 300 302 301 298 295 292 293 293 294 297 298 298 299 301 302
272 272 271 271 271 270 269 268 267 266 266 266 266 266 271 280 280 275 275 276 276 277 277 275 274 274 274 275 275 276 276 276 277 277 278 280 280 280 282 283 283 283 283 284 284 282 282 284 283 282 283 284 283 284 285 286 289 291 291 291 292 293 296 298 296 293 292 293 297 299 299 301 301 300 300 299 296 294 293 294 295 297 299 299 299 301 302 304
271 271 272 272 272 271 270 269 268 267 267 266 266 269 274 276 273 272 273 273 273 275 274 273 274 275 276 277 276 276 276 276 277 277 278 279 279 281 282 282 282 283 285 285 284 283 283 283 281 281 282 282 282 283 284 287 290 291 290 291 294 296 297 296 294 293 293 294 297 297 296 299 301 300 299 297 294 293 293 296 297 298 299 299 301 303 303 304
269 270 271 272 272 272 271 270 269 269 268 268 269 273 276 274 273 273 271 269 270 270 271 272 274 276 277 277 277 277 277 277 278 278 278 278 279 281 282 281 282 284 285 284 283 283 283 282 281 281 281 281 281 282 285 289 290 289 291 294 296 297 295 293 292 292 294 295 296 297 297 301 304 301 299 294 290 291 293 295 296 296 296 298 301 302 302 301
267 268 269 271 272 272 272 271 271 271 270 270 273 276 276 273 272 271 270 270 269 269 270 272 274 275 275 276 276 276 276 277 278 277 277 278 279 281 281 282 282 283 283 282 281 281 282 281 280 280 280 279 280 284 287 288 288 290 293 295 295 294 292 291 291 293 295 295 296 297 298 303 307 303 299 293 289 291 294 294 294 294 296 299 301 301 300 299
266 266 266 268 270 271 272 273 273 272 272 273 276 276 274 273 272 271 271 271 270 270 271 273 273 273 274 276 275 275 275 276 276 276 276 277 279 280 281 282 282 282 281 280 280 281 281 281 280 279 278 279 282 286 287 287 289 292 293 293 293 292 290 290 291 295 296 295 296 297 297 303 308 303 298 293 291 294 296 294 294 295 297 299 300 300 299 299
265 265 265 266 267 269 270 271 272 273 274 274 275 275 274 274 273 272 271 271 272 273 273 273 273 274 275 275 274 275 275 274 274 275 276 278 280 280 280 280 280 279 278 278 279 280 280 281 281 279 279 282 285 286 287 289 291 292 292 292 291 289 289 291 293 295 295 295 297 297 296 301 305 299 295 291 292 296 295 293 293 294 297 298 298 298 298 299
265 265 265 265 265 265 267 268 270 271 272 273 274 275 275 274 273 272 272 273 274 275 276 276 275 275 275 274 274 274 273 274 275 276 278 280 281 281 281 279 278 277 278 278 279 280 281 281 280 281 282 284 285 286 288 290 290 290 290 290 288 288 291 293 293 294 294 295 296 296 295 299 302 297 292 290 293 295 293 292 293 295 297 297 297 298 298 299
264 265 265 264 263 263 265 267 268 270 271 273 273 274 273 273 273 273 274 274 275 276 277 277 277 277 275 275 274 274 274 275 276 278 280 281 281 282 280 277 276 277 277 278 279 280 280 280 281 282 283 283 284 286 288 289 288 287 286 286 287 290 292 293 293 295 294 294 296 295 293 299 304 295 291 293 296 296 293 292 294 296 298 297 297 298 298 299
264 263 262 262 263 263 263 265 268 270 271 271 270 270 271 271 272 272 273 274 275 276 276 277 277 276 276 276 276 276 276 277 277 279 280 279 279 278 276 275 276 276 276 277 278 279 279 279 281 282 283 284 286 287 287 286 285 284 283 285 289 291 291 291 293 294 293 295 298 294 292 300 305 295 295 298 298 295 293 292 294 297 297 297 297 298 298 298
264 263 261 260 260 261 263 265 267 268 269 269 269 270 270 269 269 270 271 272 272 273 275 276 276 276 277 277 277 277 277 278 278 278 277 276 276 275 275 275 275 275 276 277 277 277 277 278 280 282 284 286 287 287 286 284 283 282 284 287 289 289 290 291 292 293 293 296 296 291 292 300 301 297 300 300 296 295 293 292 294 296 295 295 296 296 297 298
262 262 262 261 260 261 262 264 266 266 267 268 269 270 269 268 267 267 267 267 268 271 273 275 275 276 277 278 278 279 279 279 278 275 273 274 275 275 275 275 275 275 276 275 274 274 275 276 279 282 285 286 286 286 285 283 282 283 285 287 287 289 290 291 292 293 296 298 293 290 296 300 298 299 301 298 296 294 292 292 294 294 293 294 295 295 297 298
263 262 262 261 262 262 262 263 264 265 267 268 268 268 268 268 267 265 264 265 267 269 271 272 272 273 275 277 278 279 278 278 276 274 273 274 275 275 275 275 275 274 273 273 272 272 274 276 279 283 285 286 286 287 285 283 283 284 285 286 287 289 290 290 293 296 298 295 290 292 299 298 296 300 301 297 295 293 291 292 293 293 294 294 295 296 297 298
262 262 262 262 262 263 264 264 265 266 266 265 265 265 266 266 266 266 267 267 267 268 269 270 272 273 274 275 276 276 276 276 275 275 276 277 276 274 273 273 273 272 272 272 272 272 274 276 280 283 285 286 287 287 286 285 285 285 284 285 287 290 291 293 296 297 295 291 290 296 300 296 296 301 299 295 293 292 293 294 294 295 296 295 296 297 297 298
261 262 262 262 264 266 268 268 266 265 264 264 264 266 266 267 268 268 268 267 267 269 271 273 274 274 274 273 273 274 274 273 275 277 278 278 277 274 272 271 271 271 271 271 271 273 274 277 281 283 283 283 284 285 285 285 284 283 283 285 288 291 294 296 296 293 291 291 294 298 296 294 298 301 296 292 292 293 294 295 296 297 297 297 297 297 297 298
261 262 263 264 265 267 269 268 266 265 265 266 267 268 268 269 269 270 269 268 269 271 272 273 275 277 276 275 274 273 273 273 275 277 278 277 275 273 271 270 270 270 271 271 273 274 276 278 279 280 280 280 281 283 283 283 283 282 282 285 289 292 294 293 291 290 292 294 295 294 291 293 298 298 294 292 293 293 294 296 297 298 298 298 298 297 297 300
261 263 264 264 264 265 265 265 266 267 268 269 269 270 270 271 271 271 270 270 270 271 272 275 278 279 277 275 274 274 275 276 275 275 274 273 272 271 270 271 271 271 271 272 273 274 275 277 277 278 278 278 279 281 280 280 281 281 281 286 292 292 288 287 289 293 295 294 292 290 289 293 296 294 291 292 292 292 294 296 297 298 299 299 298 298 299 301
260 262 262 262 263 263 264 264 265 266 267 268 269 271 271 272 272 271 271 270 271 273 275 277 279 278 276 275 276 278 279 277 273 270 269 269 271 272 273 273 272 272 272 273 274 274 275 276 277 277 277 277 278 278 278 279 279 278 282 290 291 286 284 287 292 294 293 291 290 289 291 294 294 291 290 291 291 292 295 296 297 299 300 299 299 300 302 303
259 260 260 261 262 263 263 263 264 265 266 267 269 270 270 271 271 272 272 273 275 276 276 276 277 278 278 279 280 280 278 274 272 270 269 269 271 273 274 274 274 274 274 274 275 275 276 277 277 277 277 277 276 275 276 276 276 278 285 288 285 283 287 290 290 289 288 289 289 290 292 294 292 290 290 290 291 293 295 296 298 300 300 300 301 303 304 304
Height
10838 10837 10837 10837 10837 10837 10837 10838 10838 10838 10838 10838 10838 10838 10838 10838 10838 10838 10838 10838 10838 10838 10838 10837 10837 10837 10836 10836 10836 10836 10836 10836 10835 10835 10835 10834 10833 10832 10832 10831 10830 10829 10827 10826 10825 10824 10822 10820 10819 10818 10817 10815 10814 10812 10811 10809 10808 10806 10805 10803 10801 10799 10797 10795 10794 10793 10792 10790 10788 10787 10786 10785 10784 10784 10783 10783 10783 10782 10781 10780 10779 10779 10779 10778 10778 10777 10776 10775
10836 10835 10835 10835 10835 10835 10835 10835 10835 10835 10836 10836 10836 10836 10836 10836 10836 10836 10836 10836 10836 10835 10835 10835 10835 10835 10834 10834 10834 10834 10834 10833 10833 10833 10833 10832 10831 10831 10830 10829 10828 10827 10826 10824 10823 10822 10821 10819 10817 10815 10814 10813 10812 10810 10808 10807 10805 10804 10803 10802 10800 10798 10796 10794 10793 10792 10791 10789 10786 10785 10784 10783 10783 10782 10781 10781 10781 10780 10779 10778 10778 10777 10777 10776 10776 10775 10774 10773
10834 10834 10833 10833 10832 10832 10832 10832 10832 10833 10833 10833 10833 10833 10833 10833 10833 10833 10833 10833 10833 10833 10833 10832 10832 10832 10832 10832 10832 10831 10831 10831 10831 10831 10830 10830 10830 10829 10828 10827 10826 10825 10824 10822 10821 10819 10818 10817 10816 10814 10813 10811 10810 10808 10807 10805 10803 10802 10801 10799 10798 10797 10795 10793 10792 10790 10789 10788 10786 10784 10782 10782 10781 10780 10779 10778 10778 10777 10777 10776 10776 10775 10775 10774 10774 10773 10772 10771
10832 10832 10832 10831 10831 10830 10830 10830 10830 10830 10831 10831 10831 10831 10831 10831 10831 10831 10831 10831 10831 10831 10830 10830 10830 10829 10829 10829 10829 10829 10829 10829 10829 10828 10828 10828 10827 10827 10826 10825 10824 10823 10822 10820 10819 10817 10816 10815 10814 10812 10811 10810 10809 10807 10806 10804 10802 10800 10798 10797 10795 10794 10793 10791 10790 10789 10788 10786 10785 10783 10781 10780 10779 10778 10777 10776 10775 10774 10774 10774 10774 10773 10773 10772 10771 10770 10769 10768
10830 10830 10830 10829 10829 10828 10828 10828 10829 10829 10829 10829 10829 10829 10829 10829 10829 10828 10828 10828 10828 10828 10828 10827 10827 10827 10826 10826 10826 10826 10826 10826 10826 10826 10826 10826 10825 10825 10824 10823 10822 10821 10820 10818 10817 10815 10813 10812 10811 10810 10808 10807 10806 10805 10804 10803 10800 10798 10796 10795 10793 10791 10790 10789 10788 10787 10786 10784 10783 10781 10780 10779 10777 10776 10774 10773 10772 10771 10771 10771 10771 10771 10770 10769 10769 10768 10766 10765
10827 10827 10827 10827 10827 10826 10826 10826 10827 10827 10827 10827 10827 10827 10826 10826 10827 10826 10825 10825 10825 10825 10825 10825 10825 10824 10823 10823 10823 10823 10823 10823 10823 10823 10823 10823 10823 10822 10822 10821 10820 10819 10818 10817 10815 10813 10811 10810 10808 10806 10805 10804 10803 10803 10802 10801 10800 10798 10796 10794 10792 10790 10788 10787 10785 10784 10783 10782 10781 10779 10778 10777 10775 10773 10772 10771 10769 10768 10768 10767 10767 10766 10766 10765 10765 10764 10763 10762
10823 10823 10823 10823 10823 10823 10823 10824 10824 10824 10824 10825 10824 10824 10824 10824 10824 10824 10823 10823 10823 10823 10823 10823 10822 10822 10821 10820 10820 10820 10820 10820 10820 10820 10820 10820 10820 10820 10819 10819 10818 10817 10816 10815 10813 10811 10810 10808 10806 10804 10803 10802 10800 10800 10799 10799 10798 10797 10795 10793 10791 10789 10787 10785 10783 10782 10780 10779 10777 10776 10776 10775 10773 10771 10770 10768 10767 10765 10764 10764 10763 10762 10762 10761 10760 10760 10759 10758
10819 10819 10820 10820 10820 10820 10820 10820 10821 10821 10821 10821 10821 10821 10821 10820 10820 10821 10820 10820 10820 10820 10820 10820 10820 10819 10818 10818 10818 10818 10818 10818 10817 10817 10817 10817 10818 10818 10817 10816 10816 10815 10814 10813 10811 10810 10808 10806 10804 10802 10800 10799 10798 10797 10796 10796 10795 10795 10793 10792 10790 10788 10786 10784 10782 10780 10778 10776 10774 10773 10772 10772 10770 10768 10767 10766 10764 10763 10761 10761 10760 10759 10758 10758 10757 10756 10755 10754
10815 10815 10815 10816 10816 10816 10816 10817 10817 10817 10818 10818 10818 10817 10817 10816 10816 10817 10817 10816 10816 10816 10816 10816 10816 10816 10816 10815 10815 10815 10815 10815 10815 10814 10814 10814 10814 10815 10814 10814 10813 10812 10811 10810 10809 10808 10806 10804 10802 10800 10798 10797 10796 10794 10793 10792 10792 10791 10791 10789 10788 10786 10784 10782 10780 10778 10776 10774 10772 10770 10769 10769 10767 10765 10764 10763 10761 10760 10759 10758 10757 10756 10755 10755 10754 10753 10752 10751
10811 10811 10811 10811 10811 10812 10812 10813 10813 10814 10814 10814 10814 10813 10813 10813 10812 10812 10812 10812 10812 10812 10812 10812 10812 10812 10812 10812 10812 10812 10812 10812 10812 10811 10811 10811 10811 10811 10811 10811 10810 10810 10808 10807 10806 10805 10804 10802 10801 10799 10796 10794 10793 10792 10790 10789 10788 10788 10787 10786 10785 10784 10782 10780 10778 10776 10774 10772 10770 10768 10767 10767 10764 10762 10762 10760 10759 10757 10756 10755 10754 10753 10752 10752 10751 10750 10749 10748
10806 10806 10806 10806 10807 10807 10807 10808 10808 10809 10810 10810 10810 10810 10810 10809 10809 10808 10808 10807 10808 10807 10807 10808 10808 10808 10808 10808 10808 10808 10808 10808 10808 10808 10808 10807 10807 10807 10808 10808 10807 10807 10806 10805 10804 10803 10801 10800 10799 10797 10795 10793 10791 10789 10788 10786 10785 10784 10784 10783 10782 10781 10780 10778 10777 10775 10773 10770 10768 10765 10764 10765 10763 10760 10759 10758 10756 10755 10753 10753 10752 10751 10750 10749 10748 10747 10746 10745
10802 10802 10802 10802 10802 10802 10802 10803 10803 10804 10805 10805 10806 10806 10806 10806 10805 10804 10804 10804 10803 10803 10803 10803 10804 10804 10804 10803 10803 10803 10803 10804 10804 10804 10804 10804 10804 10804 10804 10804 10804 10803 10803 10802 10801 10800 10799 10797 10796 10795 10793 10791 10789 10787 10785 10784 10782 10781 10780 10780 10779 10778 10777 10775 10774 10772 10770 10768 10766 10763 10760 10761 10761 10757 10756 10755 10753 10751 10750 10749 10749 10748 10747 10746 10745 10744 10743 10742
10798 10798 10798 10798 10797 10797 10797 10798 10798 10799 10799 10800 10801 10801 10801 10801 10800 10800 10800 10800 10799 10799 10799 10799 10799 10799 10799 10798 10798 10798 10799 10799 10799 10799 10799 10800 10800 10799 10800 10800 10800 10799 10799 10798 10797 10797 10796 10795 10793 10792 10790 10789 10787 10785 10783 10781 10780 10778 10776 10775 10774 10774 10774 10774 10771 10769 10768 10766 10765 10762 10756 10755 10758 10755 10752 10751 10749 10747 10746 10745 10745 10744 10743 10743 10742 10741 10739 10738
10795 10795 10794 10794 10793 10793 10793 10793 10793 10793 10794 10794 10795 10796 10796 10796 10796 10795 10796 10795 10795 10795 10795 10795 10795 10795 10794 10793 10793 10793 10794 10794 10793 10793 10794 10794 10795 10794 10795 10795 10795 10795 10795 10794 10793 10793 10793 10792 10790 10789 10787 10785 10784 10782 10780 10778 10777 10775 10773 10771 10770 10769 10769 10770 10769 10766 10765 10763 10762 10761 10756 10750 10752 10752 10749 10747 10745 10743 10742 10741 10740 10740 10739 10738 10737 10736 10735 10733
10791 10791 10791 10790 10790 10790 10789 10789 10789 10788 10789 10789 10790 10790 10790 10791 10791 10790 10791 10791 10790 10790 10790 10790 10790 10790 10790 10788 10788 10788 10788 10788 10788 10788 10788 10788 10789 10789 10790 10790 10790 10790 10790 10790 10789 10789 10789 10788 10787 10785 10784 10782 10781 10779 10777 10775 10773 10772 10770 10768 10767 10766 10764 10765 10766 10764 10761 10760 10758 10758 10755 10748 10745 10746 10745 10743 10741 10739 10738 10737 10736 10735 10734 10732 10731 10730 10729 10728
10788 10788 10787 10787 10786 10786 10786 10785 10785 10784 10784 10784 10785 10785 10785 10785 10786 10786 10786 10786 10785 10785 10785 10785 10785 10786 10785 10783 10782 10782 10782 10782 10782 10782 10782 10782 10783 10783 10784 10785 10785 10785 10785 10785 10784 10784 10784 10784 10783 10782 10780 10779 10777 10776 10773 10771 10770 10769 10767 10765 10763 10763 10761 10760 10762 10761 10759 10757 10755 10754 10753 10746 10741 10741 10740 10739 10737 10734 10733 10733 10731 10730 10729 10727 10725 10724 10723 10722
10784 10784 10783 10783 10783 10783 10782 10782 10781 10780 10779 10780 10780 10781 10781 10781 10781 10781 10781 10781 10781 10780 10780 10780 10780 10781 10780 10778 10777 10776 10777 10776 10776 10776 10776 10776 10777 10778 10778 10779 10780 10780 10780 10780 10779 10779 10779 10779 10779 10778 10776 10775 10773 10772 10770 10768 10766 10765 10764 10762 10760 10759 10757 10757 10758 10757 10756 10755 10752 10751 10751 10745 10738 10736 10737 10735 10733 10730 10728 10728 10727 10725 10724 10722 10721 10719 10718 10717
10780 10780 10779 10779 10779 10779 10778 10777 10776 10776 10775 10775 10776 10776 10777 10777 10776 10777 10777 10777 10776 10776 10776 10775 10775 10776 10774 10773 10772 10771 10771 10771 10770 10770 10769 10770 10771 10772 10772 10773 10774 10775 10775 10774 10774 10774 10774 10774 10774 10773 10771 10770 10769 10767 10767 10765 10762 10761 10760 10758 10756 10754 10752 10753 10754 10753 10753 10752 10748 10748 10749 10744 10735 10730 10732 10732 10730 10726 10723 10723 10722 10721 10720 10718 10717 10715 10714 10713
10776 10776 10775 10775 10775 10775 10774 10773 10772 10772 10771 10771 10772 10772 10772 10773 10772 10772 10773 10772 10771 10771 10771 10771 10771 10771 10769 10767 10767 10765 10765 10765 10764 10763 10763 10764 10765 10765 10766 10767 10768 10769 10769 10769 10769 10769 10769 10769 10768 10767 10767 10765 10764 10762 10761 10761 10759 10757 10756 10754 10752 10750 10748 10747 10749 10749 10750 10749 10745 10744 10747 10743 10733 10727 10725 10727 10726 10722 10719 10719 10718 10717 10716 10714 10713 10711 10710 10709
10771 10772 10771 10770 10770 10770 10769 10769 10768 10768 10767 10767 10768 10768 10768 10769 10769 10769 10769 10768 10767 10767 10766 10766 10766 10765 10764 10763 10762 10761 10759 10759 10758 10756 10756 10757 10758 10759 10760 10761 10762 10763 10763 10763 10763 10763 10763 10763 10761 10761 10762 10759 10759 10757 10756 10756 10755 10754 10752 10750 10748 10747 10745 10742 10743 10744 10745 10747 10742 10739 10743 10740 10732 10725 10720 10720 10721 10717 10715 10714 10713 10712 10711 10709 10707 10706 10705 10704
10767 10767 10766 10766 10766 10765 10765 10765 10764 10764 10764 10763 10763 10763 10764 10764 10764 10765 10765 10764 10763 10763 10761 10760 10761 10761 10760 10758 10757 10755 10754 10753 10751 10750 10750 10751 10751 10753 10753 10755 10756 10756 10756 10757 10757 10757 10758 10757 10754 10755 10756 10754 10753 10752 10750 10750 10750 10749 10748 10746 10743 10742 10743 10739 10737 10739 10739 10742 10740 10736 10740 10737 10729 10723 10716 10714 10714 10709 10708 10708 10707 10707 10705 10703 10701 10699 10699 10699
10762 10762 10761 10761 10760 10760 10760 10760 10759 10759 10759 10758 10758 10758 10759 10760 10760 10761 10762 10761 10759 10758 10757 10756 10756 10756 10755 10753 10751 10750 10749 10747 10744 10744 10745 10745 10745 10747 10748 10749 10750 10750 10750 10750 10751 10752 10753 10751 10748 10749 10750 10748 10748 10746 10744 10745 10745 10744 10742 10741 10739 10737 10739 10737 10733 10733 10734 10736 10737 10734 10736 10734 10727 10720 10711 10710 10709 10701 10699 10701 10700 10700 10698 10695 10694 10692 10692 10692
10756 10756 10756 10755 10755 10755 10754 10754 10754 10754 10754 10754 10753 10753 10754 10754 10755 10756 10758 10759 10757 10753 10752 10752 10751 10751 10749 10747 10746 10744 10743 10740 10738 10738 10738 10739 10739 10741 10743 10742 10744 10744 10743 10743 10745 10747 10746 10744 10742 10742 10743 10742 10741 10739 10738 10739 10740 10739 10736 10735 10735 10733 10734 10734 10730 10729 10728 10729 10732 10730 10733 10733 10725 10718 10705 10703 10707 10696 10689 10694 10694 10692 10689 10687 10685 10683 10684 10684
10749 10750 10750 10750 10749 10748 10748 10748 10748 10748 10748 10748 10748 10747 10748 10749 10750 10751 10752 10756 10756 10750 10746 10747 10747 10746 10743 10742 10740 10738 10736 10735 10733 10732 10732 10734 10734 10735 10737 10736 10738 10737 10735 10737 10740 10741 10739 10736 10736 10735 10736 10736 10735 10733 10731 10733 10736 10733 10730 10729 10730 10729 10727 10729 10728 10726 10724 10723 10724 10722 10727 10734 10728 10718 10704 10695 10700 10694 10685 10689 10686 10681 10680 10679 10677 10676 10676 10677
10743 10743 10745 10744 10742 10742 10743 10743 10742 10742 10741 10742 10742 10741 10743 10744 10744 10746 10746 10751 10755 10748 10742 10743 10743 10740 10737 10735 10733 10731 10730 10730 10728 10727 10728 10728 10728 10730 10731 10731 10732 10730 10729 10732 10734 10736 10731 10727 10730 10730 10729 10729 10728 10725 10723 10727 10731 10728 10724 10721 10724 10725 10722 10723 10722 10722 10723 10719 10719 10713 10714 10730 10732 10720 10706 10694 10691 10686 10683 10688 10681 10673 10673 10671 10670 10670 10671 10671
10736 10736 10738 10737 10736 10735 10736 10737 10735 10735 10736 10736 10735 10735 10737 10738 10738 10740 10741 10746 10752 10746 10740 10739 10737 10734 10730 10726 10725 10724 10725 10725 10723 10723 10723 10724 10724 10725 10725 10725 10725 10724 10723 10726 10729 10730 10723 10719 10723 10724 10723 10723 10720 10718 10717 10720 10725 10724 10719 10715 10717 10718 10717 10718 10715 10716 10718 10716 10718 10708 10698 10720 10734 10720 10707 10697 10687 10678 10678 10683 10676 10667 10667 10664 10663 10666 10666 10665
10730 10730 10731 10731 10729 10728 10730 10730 10729 10729 10729 10728 10729 10729 10730 10732 10733 10734 10734 10741 10748 10745 10737 10733 10730 10729 10724 10719 10719 10717 10718 10719 10718 10718 10718 10719 10720 10720 10720 10719 10717 10718 10718 10719 10723 10722 10716 10715 10716 10715 10717 10716 10712 10711 10711 10712 10716 10718 10714 10710 10711 10711 10710 10712 10709 10709 10711 10711 10716 10703 10688 10708 10728 10720 10707 10696 10684 10676 10675 10674 10666 10660 10659 10657 10658 10661 10661 10659
10724 10724 10724 10724 10722 10722 10722 10723 10722 10722 10721 10721 10722 10723 10724 10725 10727 10728 10729 10736 10744 10742 10735 10726 10721 10722 10718 10715 10714 10712 10712 10713 10712 10714 10713 10713 10715 10715 10714 10712 10711 10713 10712 10713 10717 10713 10710 10710 10709 10708 10709 10707 10705 10705 10705 10704 10707 10709 10707 10705 10704 10703 10704 10704 10703 10702 10702 10708 10710 10697 10685 10698 10716 10714 10702 10692 10683 10675 10673 10666 10656 10653 10651 10649 10653 10655 10654 10651
10718 10718 10718 10717 10716 10716 10715 10715 10716 10714 10713 10714 10715 10715 10717 10719 10720 10722 10725 10732 10737 10735 10729 10722 10716 10715 10712 10709 10710 10709 10708 10708 10708 10709 10707 10707 10710 10709 10708 10706 10704 10705 10705 10707 10710 10705 10703 10704 10703 10702 10701 10699 10698 10698 10697 10697 10698 10699 10699 10699 10697 10696 10698 10696 10696 10695 10694 10703 10702 10690 10686 10691 10705 10708 10692 10685 10680 10672 10668 10659 10649 10646 10643 10643 10648 10648 10646 10644
10712 10712 10711 10711 10711 10710 10708 10708 10708 10706 10706 10707 10707 10708 10710 10712 10715 10717 10723 10730 10728 10723 10722 10719 10712 10707 10704 10704 10705 10705 10704 10704 10703 10703 10702 10702 10702 10703 10702 10699 10697 10698 10698 10700 10701 10696 10696 10697 10696 10695 10693 10692 10691 10690 10690 10689 10689 10690 10690 10690 10688 10689 10690 10688 10690 10687 10687 10697 10693 10685 10685 10686 10695 10698 10684 10679 10676 10667 10662 10652 10643 10640 10636 10637 10642 10640 10637 10635
10705 10705 10704 10704 10704 10702 10702 10701 10699 10699 10699 10698 10699 10701 10703 10706 10710 10715 10722 10723 10716 10714 10715 10712 10706 10701 10700 10700 10700 10699 10698 10698 10697 10696 10697 10697 10697 10698 10695 10692 10690 10691 10692 10693 10691 10689 10690 10690 10689 10687 10685 10684 10683 10683 10682 10681 10681 10682 10681 10680 10679 10680 10680 10681 10683 10680 10680 10688 10685 10680 10683 10683 10688 10685 10675 10673 10669 10661 10653 10644 10638 10634 10630 10633 10635 10632 10629 10627
10696 10697 10698 10697 10695 10695 10695 10694 10691 10690 10691 10691 10691 10694 10696 10701 10709 10715 10718 10712 10706 10708 10706 10700 10699 10698 10695 10695 10695 10693 10692 10692 10691 10690 10691 10691 10693 10693 10689 10686 10684 10681 10684 10685 10682 10681 10684 10685 10682 10680 10679 10677 10676 10674 10673 10673 10674 10674 10674 10671 10670 10670 10669 10673 10677 10673 10673 10677 10675 10675 10678 10680 10682 10676 10668 10666 10660 10653 10643 10635 10633 10628 10625 10629 10628 10624 10622 10619
10688 10690 10689 10688 10688 10688 10686 10685 10683 10682 10682 10682 10684 10688 10690 10697 10710 10714 10708 10702 10699 10699 10696 10693 10693 10692 10690 10691 10690 10686 10685 10685 10684 10683 10684 10685 10688 10688 10684 10681 10677 10672 10674 10675 10674 10674 10677 10681 10678 10671 10670 10671 10669 10665 10664 10666 10666 10667 10667 10662 10661 10659 10655 10662 10669 10666 10666 10669 10668 10669 10672 10675 10675 10669 10665 10660 10652 10642 10632 10627 10624 10620 10621 10623 10620 10617 10615 10612
10680 10681 10680 10681 10680 10679 10677 10675 10674 10674 10672 10673 10676 10679 10685 10698 10709 10706 10699 10696 10691 10688 10689 10687 10686 10685 10685 10686 10684 10682 10678 10677 10678 10676 10677 10679 10682 10682 10679 10675 10670 10665 10663 10663 10666 10664 10667 10678 10676 10663 10661 10663 10660 10657 10656 10656 10657 10659 10659 10654 10653 10649 10643 10649 10657 10654 10654 10661 10666 10664 10663 10668 10667 10663 10661 10654 10644 10633 10622 10619 10616 10612 10615 10614 10610 10609 10606 10604
10672 10672 10673 10673 10672 10670 10667 10664 10665 10664 10663 10664 10666 10671 10685 10698 10699 10695 10693 10689 10682 10681 10681 10677 10677 10678 10679 10681 10679 10677 10671 10669 10672 10670 10670 10674 10675 10675 10674 10669 10663 10657 10653 10652 10653 10652 10657 10670 10671 10659 10656 10654 10651 10650 10648 10647 10650 10652 10650 10646 10644 10642 10637 10636 10640 10639 10638 10648 10661 10660 10656 10661 10660 10657 10655 10645 10635 10623 10613 10611 10608 10605 10605 10602 10600 10601 10597 10595
10662 10663 10664 10667 10664 10659 10656 10655 10655 10653 10653 10654 10656 10668 10686 10691 10686 10686 10686 10681 10676 10674 10670 10668 10670 10670 10673 10675 10673 10669 10664 10662 10665 10664 10664 10666 10667 10670 10670 10663 10655 10650 10647 10642 10637 10638 10645 10657 10661 10654 10651 10648 10644 10643 10643 10642 10643 10643 10641 10639 10636 10634 10632 10625 10622 10626 10625 10631 10650 10653 10648 10655 10656 10651 10648 10638 10625 10614 10607 10605 10601 10597 10595 10593 10593 10592 10589 10586
10652 10653 10657 10659 10655 10647 10644 10645 10643 10642 10643 10642 10648 10668 10682 10680 10678 10677 10675 10672 10668 10664 10660 10661 10664 10664 10665 10667 10666 10663 10656 10654 10658 10657 10655 10656 10660 10666 10664 10656 10651 10645 10641 10633 10624 10624 10629 10639 10649 10647 10642 10640 10637 10635 10639 10640 10635 10633 10634 10633 10630 10626 10622 10614 10608 10613 10615 10616 10633 10644 10640 10647 10652 10645 10640 10631 10616 10608 10604 10600 10595 10590 10587 10587 10587 10584 10580 10576
10641 10643 10649 10651 10645 10636 10633 10633 10633 10633 10631 10632 10646 10667 10671 10668 10670 10667 10662 10662 10659 10654 10653 10656 10658 10657 10657 10659 10659 10655 10648 10647 10650 10647 10646 10648 10653 10661 10657 10649 10646 10641 10634 10623 10615 10615 10615 10619 10634 10640 10632 10629 10631 10632 10634 10633 10626 10625 10628 10627 10624 10617 10610 10604 10598 10602 10606 10601 10612 10631 10634 10640 10644 10636 10629 10620 10608 10604 10601 10593 10585 10582 10580 10581 10579 10575 10570 10565
10630 10634 10642 10643 10633 10627 10624 10621 10621 10620 10619 10628 10646 10657 10658 10658 10660 10656 10653 10651 10647 10645 10646 10650 10650 10647 10650 10652 10650 10646 10642 10641 10640 10638 10638 10641 10647 10654 10651 10642 10639 10634 10627 10615 10606 10608 10604 10600 10614 10628 10624 10621 10627 10630 10627 10623 10619 10619 10620 10619 10616 10607 10597 10595 10593 10594 10595 10588 10593 10611 10625 10638 10639 10626 10616 10607 10599 10599 10593 10581 10575 10572 10573 10573 10570 10565 10559 10554
10618 10621 10634 10636 10624 10619 10616 10608 10607 10609 10612 10625 10637 10642 10647 10649 10648 10646 10644 10639 10637 10637 10638 10642 10640 10638 10643 10644 10639 10637 10634 10631 10633 10630 10631 10637 10641 10645 10644 10636 10629 10623 10616 10608 10602 10599 10594 10587 10594 10609 10616 10619 10624 10623 10618 10617 10614 10610 10610 10609 10605 10596 10587 10587 10589 10590 10585 10578 10581 10588 10605 10634 10636 10616 10605 10597 10593 10594 10583 10569 10566 10565 10567 10566 10560 10555 10549 10545
10605 10609 10625 10626 10613 10609 10603 10593 10596 10600 10603 10617 10628 10631 10634 10633 10634 10636 10634 10630 10629 10629 10629 10630 10631 10631 10633 10632 10629 10628 10623 10621 10626 10624 10625 10633 10634 10635 10636 10628 10618 10613 10606 10600 10596 10592 10584 10576 10576 10591 10607 10614 10617 10616 10613 10612 10607 10602 10600 10597 10592 10585 10580 10578 10579 10584 10579 10572 10575 10570 10580 10620 10630 10605 10593 10589 10586 10586 10571 10557 10557 10557 10558 10555 10548 10544 10539 10534
10591 10600 10612 10608 10598 10598 10592 10583 10587 10590 10596 10611 10618 10616 10614 10616 10622 10625 10625 10623 10620 10620 10618 10619 10622 10622 10620 10621 10619 10617 10614 10613 10617 10618 10620 10626 10626 10626 10624 10614 10606 10604 10598 10592 10590 10585 10573 10563 10564 10579 10595 10604 10608 10611 10608 10604 10599 10593 10590 10587 10583 10579 10576 10569 10566 10574 10571 10567 10572 10558 10556 10601 10618 10590 10580 10581 10576 10573 10559 10546 10548 10549 10547 10543 10536 10533 10528 10523
10582 10590 10594 10589 10585 10584 10578 10577 10583 10584 10590 10600 10600 10598 10600 10604 10610 10615 10616 10614 10610 10608 10607 10608 10612 10609 10608 10611 10608 10607 10607 10604 10608 10614 10612 10613 10618 10616 10609 10602 10598 10594 10589 10585 10582 10574 10561 10555 10557 10566 10579 10592 10600 10603 10601 10596 10588 10581 10578 10580 10577 10574 10570 10563 10560 10563 10559 10562 10567 10543 10539 10584 10600 10576 10571 10570 10561 10559 10548 10536 10538 10540 10535 10530 10525 10522 10517 10512
10569 10571 10572 10576 10574 10568 10567 10577 10581 10574 10576 10581 10583 10588 10591 10591 10597 10603 10605 10601 10597 10596 10596 10599 10601 10597 10598 10600 10596 10597 10599 10594 10600 10606 10599 10598 10607 10606 10599 10594 10588 10582 10580 10578 10571 10561 10551 10548 10549 10554 10567 10582 10590 10592 10591 10585 10574 10568 10572 10574 10570 10566 10561 10558 10558 10552 10549 10560 10555 10526 10530 10570 10580 10565 10564 10555 10542 10544 10536 10526 10530 10530 10522 10519 10515 10510 10506 10501
10550 10550 10555 10560 10558 10555 10562 10572 10569 10561 10564 10568 10570 10575 10577 10577 10585 10590 10589 10587 10586 10587 10588 10589 10588 10587 10588 10587 10584 10589 10590 10586 10586 10587 10586 10589 10594 10596 10593 10584 10577 10573 10571 10566 10558 10548 10541 10539 10543 10549 10558 10569 10578 10581 10579 10572 10563 10560 10566 10566 10561 10558 10553 10550 10551 10547 10546 10549 10534 10517 10528 10551 10560 10560 10554 10536 10526 10528 10523 10517 10520 10517 10511 10509 10505 10499 10495 10490
10530 10530 10537 10544 10542 10542 10552 10559 10554 10552 10558 10556 10553 10557 10560 10563 10571 10573 10572 10576 10580 10580 10576 10575 10576 10577 10578 10577 10576 10578 10579 10574 10568 10566 10575 10584 10584 10586 10583 10573 10567 10563 10558 10552 10544 10536 10531 10533 10541 10548 10550 10554 10563 10568 10563 10556 10554 10554 10556 10555 10552 10551 10545 10540 10543 10547 10542 10526 10514 10523 10530 10525 10539 10557 10544 10520 10511 10511 10510 10509 10507 10504 10500 10497 10493 10488 10484 10477
10509 10512 10522 10529 10525 10523 10536 10547 10544 10543 10546 10540 10535 10541 10545 10548 10554 10559 10561 10566 10569 10564 10559 10561 10566 10568 10570 10570 10564 10563 10565 10560 10552 10555 10569 10577 10573 10570 10567 10560 10556 10551 10546 10540 10532 10526 10521 10526 10540 10546 10541 10542 10548 10552 10547 10541 10542 10545 10544 10545 10547 10543 10536 10534 10536 10540 10530 10505 10502 10529 10528 10505 10520 10545 10529 10505 10497 10496 10499 10498 10492 10491 10488 10483 10480 10477 10471 10464
10492 10498 10507 10510 10504 10503 10518 10532 10532 10526 10524 10520 10520 10526 10531 10534 10540 10548 10550 10550 10550 10547 10543 10548 10555 10557 10560 10558 10550 10547 10550 10546 10543 10553 10563 10563 10557 10551 10547 10545 10542 10538 10535 10528 10522 10520 10514 10519 10537 10539 10529 10532 10538 10538 10533 10525 10526 10532 10533 10537 10541 10536 10530 10528 10525 10523 10516 10499 10500 10520 10514 10497 10514 10525 10505 10489 10485 10482 10484 10484 10479 10477 10474 10469 10467 10463 10456 10452
10478 10482 10491 10493 10489 10490 10499 10507 10507 10502 10502 10506 10506 10509 10516 10523 10530 10535 10533 10529 10533 10534 10530 10532 10543 10547 10545 10542 10535 10530 10533 10537 10542 10550 10551 10543 10537 10532 10526 10526 10527 10525 10523 10519 10518 10517 10508 10512 10528 10526 10515 10521 10530 10529 10520 10509 10510 10517 10521 10530 10536 10530 10522 10516 10509 10510 10509 10499 10499 10502 10492 10497 10515 10504 10479 10477 10478 10468 10466 10469 10467 10462 10458 10455 10452 10446 10442 10440
10469 10470 10478 10477 10471 10475 10480 10483 10484 10481 10485 10488 10486 10492 10504 10510 10517 10521 10514 10510 10515 10517 10515 10521 10533 10534 10526 10522 10517 10515 10526 10536 10535 10537 10534 10520 10512 10512 10510 10512 10517 10514 10511 10512 10513 10509 10502 10503 10515 10512 10500 10509 10524 10519 10503 10497 10498 10498 10509 10531 10535 10518 10504 10500 10500 10504 10502 10491 10487 10483 10478 10496 10511 10489 10465 10467 10467 10458 10455 10456 10452 10448 10444 10441 10436 10432 10429 10426
10462 10460 10463 10455 10449 10456 10463 10466 10466 10463 10465 10468 10471 10483 10491 10491 10499 10502 10492 10491 10500 10504 10506 10510 10514 10512 10505 10502 10503 10512 10527 10527 10515 10513 10512 10498 10492 10498 10499 10501 10504 10501 10500 10503 10503 10499 10494 10493 10501 10497 10484 10495 10514 10503 10488 10489 10484 10480 10506 10535 10524 10494 10484 10492 10497 10497 10489 10476 10470 10469 10474 10488 10492 10475 10460 10458 10453 10449 10449 10445 10440 10436 10430 10424 10421 10418 10415 10410
10449 10446 10445 10437 10430 10435 10443 10447 10447 10443 10447 10456 10463 10471 10473 10475 10483 10480 10469 10476 10490 10491 10488 10487 10489 10490 10489 10491 10500 10509 10510 10500 10490 10491 10490 10482 10481 10486 10486 10487 10490 10491 10492 10493 10491 10489 10485 10482 10486 10482 10469 10477 10493 10487 10478 10473 10464 10477 10514 10524 10499 10479 10479 10485 10486 10481 10473 10463 10456 10460 10469 10473 10468 10457 10449 10447 10445 10442 10437 10434 10432 10424 10415 10411 10409 10405 10400 10396